Simultaneous Nadir Overpasses (SNOs) Predictions

Prediction of SNOs between AQUA and NOAA-19 Satellite Orbit:

Table of predicted SNOs for the next 14.0 days since TLE Epoch: 2/5/2016
Index Date (AQUA) Time (AQUA) Lat,Lon (AQUA) SZA (AQUA ) Date (NOAA-19) Time (NOAA-19) Lat,Lon (NOAA-19) SZA (NOAA-19 ) Distance(km) Time Diff (sec)
1 02/07/2016 13:11:22 -80.71, 124.58 81.74 02/07/2016 13:11:08 -80.71, 124.63 81.75 1.13 14
2 02/09/2016 18:45:05 80.71,-138.78 97.55 02/09/2016 18:45:21 80.70,-138.68 97.53 2.06 16
3 02/11/2016 23:29:22 80.73, 149.87 96.89 02/11/2016 23:28:32 80.73, 149.75 96.93 2.13 50
4 02/12/2016 00:18:47 -80.70, -42.07 83.20 02/12/2016 00:19:26 -80.69, -42.01 83.22 1.15 39
5 02/14/2016 05:03:04 -80.72,-113.47 83.87 02/14/2016 05:02:36 -80.72,-113.38 83.87 1.90 28
6 02/14/2016 05:52:29 80.67, 54.74 96.02 02/14/2016 05:53:39 80.68, 54.84 95.99 1.67 70
7 02/16/2016 10:36:46 80.71, -16.73 95.35 02/16/2016 10:36:50 80.72, -16.83 95.36 1.74 4
8 02/18/2016 15:21:03 80.75, -88.28 94.66 02/18/2016 15:20:00 80.74, -88.19 94.67 2.02 63




NCC Satellite Simultaneous Nadir Overpasses (SNOs) Prediction Service
